CW8727 Weather Reports


Display with metric or nautical units.
time (UTC)temp
F
wind
direction
speed
MPH
gust
MPH
rain 1hr
in
rain 24hr
in
rain mn
in
humidity
%
barometer
mb
20180820030719 63 131 0.0 0.0 0.00 0.00 0.00 85 1019.9
20180820025719 64 131 0.0 0.0 0.00 0.00 0.00 84 1019.9
20180820024719 64 131 0.0 0.0 0.00 0.00 0.00 83 1019.6
20180820023719 65 131 0.0 0.0 0.00 0.00 0.00 83 1019.7
20180820022719 65 131 0.0 0.0 0.00 0.00 0.00 82 1019.6
20180820020719 66 131 0.0 0.0 0.00 0.00 0.00 80 1019.5
20180820015719 66 131 0.0 0.0 0.00 0.00 0.00 80 1019.5
20180820014719 66 87 5.0 7.0 0.00 0.00 0.00 80 1019.4
20180820010719 66 90 0.0 0.0 0.00 0.00 0.00 80 1019.2
20180820004719 66 115 0.0 0.0 0.00 0.00 0.00 80 1019.2
20180820003719 66 115 0.0 0.0 0.00 0.00 0.00 79 1019.1
20180820001719 66 114 0.0 0.0 0.00 0.00 0.00 77 1018.7
20180819234719 67 132 0.0 2.0 0.00 0.00 0.00 75 1018.3
20180819233719 67 127 0.0 0.0 0.00 0.00 0.00 76 1018.3
20180819230719 69 140 0.0 0.0 0.00 0.00 0.00 72 1018.1
20180819224719 71 140 0.0 0.0 0.00 0.00 0.00 69 1017.9
20180819223719 72 140 0.0 0.0 0.00 0.00 0.00 62 1017.7
20180819222719 72 136 0.0 0.0 0.00 0.00 0.00 63 1017.5
20180819214719 74 103 0.0 1.0 0.00 0.00 0.00 60 1017.3
20180819213719 74 127 0.0 7.0 0.00 0.00 0.00 61 1017.2
20180819212719 74 89 2.0 7.0 0.00 0.00 0.00 59 1017.1
20180819211719 75 123 0.0 7.0 0.00 0.00 0.00 58 1016.9
20180819210719 75 155 0.0 5.0 0.00 0.00 0.00 58 1016.7
20180819205719 76 109 0.0 8.0 0.00 0.00 0.00 59 1016.7
20180819202719 75 106 0.0 6.0 0.00 0.00 0.00 55 1016.7
20180819200719 77 92 10.0 13.0 0.00 0.00 0.00 53 1016.5
20180819195719 78 34 0.0 5.0 0.00 0.00 0.00 55 1016.4
20180819194719 77 49 0.0 10.0 0.00 0.00 0.00 54 1016.3
20180819193719 77 133 8.0 18.0 0.00 0.00 0.00 53 1016.2
20180819192719 77 10 0.0 4.0 0.00 0.00 0.00 55 1016.3
20180819185719 78 26 0.0 9.0 0.00 0.00 0.00 56 1016.3
20180819183719 77 321 0.0 5.0 0.00 0.00 0.00 59 1016.5
20180819182719 77 82 0.0 10.0 0.00 0.00 0.00 56 1016.6
20180819180719 77 46 0.0 7.0 0.00 0.00 0.00 56 1016.4
20180819175719 77 94 0.0 9.0 0.00 0.00 0.00 56 1016.4
20180819173719 77 67 0.0 7.0 0.00 0.00 0.00 55 1016.3
20180819171719 76 146 3.0 8.0 0.00 0.00 0.00 58 1016.2
20180819164719 75 26 4.0 9.0 0.00 0.00 0.00 58 1016.3
20180819163719 75 127 0.0 10.0 0.00 0.00 0.00 59 1016.3
20180819162721 75 15 0.0 7.0 0.00 0.00 0.00 59 1016.4
20180819160719 74 10 0.0 7.0 0.00 0.00 0.00 61 1016.6
20180819154719 74 124 0.0 6.0 0.00 0.00 0.00 60 1016.6
20180819153719 73 34 2.0 9.0 0.00 0.00 0.00 63 1016.6
20180819151719 73 138 0.0 10.0 0.00 0.00 0.00 62 1016.5
20180819150719 73 117 8.0 12.0 0.00 0.00 0.00 61 1016.6
20180819141719 72 42 0.0 5.0 0.00 0.00 0.00 69 1016.4
20180819140719 72 23 0.0 6.0 0.00 0.00 0.00 71 1016.3
20180819135719 71 111 0.0 7.0 0.00 0.00 0.00 73 1016.2
20180819133719 71 24 0.0 5.0 0.00 0.00 0.00 74 1016.2
20180819132719 71 32 0.0 4.0 0.00 0.00 0.00 74 1016.2
20180819131719 70 355 0.0 6.0 0.00 0.00 0.00 75 1016.0
20180819130719 70 355 0.0 7.0 0.00 0.00 0.00 76 1015.9
20180819125719 70 349 0.0 3.0 0.00 0.00 0.00 78 1015.9
20180819124719 70 107 1.0 4.0 0.00 0.00 0.00 78 1015.9
20180819123719 69 155 0.0 6.0 0.00 0.00 0.00 79 1016.0
20180819121719 69 5 0.0 8.0 0.00 0.00 0.00 80 1015.7
20180819120719 68 38 1.0 5.0 0.00 0.00 0.00 82 1015.6
20180819114719 68 5 0.0 5.0 0.00 0.00 0.00 83 1015.5
20180819111719 67 35 0.0 4.0 0.00 0.00 0.00 84 1015.2
20180819103719 66 23 0.0 0.0 0.00 0.00 0.00 86 1014.5
20180819101719 66 23 0.0 0.0 0.00 0.00 0.00 86 1014.5
20180819100719 66 23 0.0 0.0 0.00 0.00 0.00 85 1014.4
20180819095719 66 24 0.0 0.0 0.00 0.00 0.00 85 1014.4
20180819094719 66 24 0.0 3.0 0.00 0.00 0.00 85 1014.3
20180819083719 67 15 0.0 0.0 0.00 0.00 0.00 84 1013.8
20180819082719 67 15 0.0 1.0 0.00 0.00 0.00 84 1013.7
20180819081719 67 319 0.0 0.0 0.00 0.00 0.00 84 1013.7
20180819080719 67 319 0.0 0.0 0.00 0.00 0.00 84 1013.7
20180819073719 67 319 0.0 4.0 0.00 0.00 0.00 83 1013.6
20180819071719 67 17 0.0 0.0 0.00 0.00 0.00 84 1013.4
20180819070719 67 26 0.0 0.0 0.00 0.00 0.00 83 1013.3
20180819064719 68 32 0.0 0.0 0.00 0.00 0.00 83 1013.1
20180819063719 68 5 0.0 5.0 0.00 0.00 0.00 83 1013.0
20180819062719 68 355 0.0 3.0 0.00 0.00 0.00 83 1013.0
20180819061719 67 67 0.0 0.0 0.00 0.00 0.00 83 1013.0
20180819055719 68 318 0.0 1.0 0.00 0.00 0.00 84 1013.0
20180819053719 68 327 2.0 4.0 0.00 0.00 0.00 84 1012.9
20180819050719 68 121 1.0 8.0 0.00 0.00 0.00 86 1012.5
20180819045719 68 83 2.0 4.0 0.00 0.00 0.00 87 1012.4
20180819044719 68 90 0.0 1.0 0.00 0.00 0.00 87 1012.2
20180819043719 69 16 0.0 1.0 0.00 0.00 0.00 87 1012.2
20180819041719 69 332 0.0 0.0 0.00 0.00 0.00 86 1012.2
20180819040719 69 349 0.0 0.0 0.00 0.00 0.00 85 1012.1
20180819035719 69 29 2.0 5.0 0.00 0.00 0.70 85 1012.1
20180819034719 69 343 0.0 2.0 0.00 0.00 0.70 85 1012.0
20180819032719 69 327 0.0 0.0 0.00 0.00 0.70 85 1011.9